Location: Bay Harbour
(38.2612°N, 75.2555°W)
Time: 02:15:10
(UTC+00:00)

Cosmos 2219 - Pass Details

Date: 29 October 2020
Orbit: 832 x 862 km, 71.1° (Epoch: 02 December)

Event Time Altitude Azimuth Distance (km) Brightness Sun altitude
Rises 23:11:22 0° 335° (NNW) 3,444 6.6 -13.7°
Reaches altitude 10° 23:13:50 10° 334° (NNW) 2,505 5.9 -14.2°
Maximum altitude 23:19:35 76° 251° (WSW) 889 3.4 -15.3°
Drops below altitude 10° 23:25:18 10° 166° (SSE) 2,486 5.5 -16.4°
Sets 23:27:45 0° 164° (SSE) 3,416 6.2 -16.9°
